BTI850 EETN-EEPU

Flight info

Callsign BTI850
Flight time 0h 18m
Altitude 12000
Route NITSO
Aircraft DH8D/M-SDE2E3FGRY/H

Departure

Time 2026-05-05 18:54
Airport Lennart Meri Tallinn Airport (EETN)

Arrival

Time 2026-05-05 19:12
Airport Pärnu Airport (EEPU)
Time Latitude Longitude Altitude Speed Heading
2026-05-05 18:23 59.41604 24.80386 142 ft 0 kts 326°
2026-05-05 18:40 59.41605 24.80386 142 ft 0 kts 325°
2026-05-05 18:40 59.41604 24.80386 142 ft 0 kts 325°
2026-05-05 18:41 59.41593 24.80401 142 ft 2 kts 326°
2026-05-05 18:41 59.41581 24.80417 142 ft 2 kts 326°
2026-05-05 18:41 59.41569 24.80433 142 ft 2 kts 326°
2026-05-05 18:41 59.41557 24.80450 142 ft 2 kts 332°
2026-05-05 18:42 59.41542 24.80454 142 ft 2 kts 13°
2026-05-05 18:42 59.41530 24.80441 142 ft 2 kts 51°
2026-05-05 18:42 59.41524 24.80415 142 ft 1 kts 87°
2026-05-05 18:42 59.41524 24.80407 142 ft 0 kts 92°
2026-05-05 18:44 59.41523 24.80432 142 ft 4 kts 99°
2026-05-05 18:45 59.41516 24.80509 142 ft 7 kts 100°
2026-05-05 18:45 59.41507 24.80619 142 ft 9 kts 96°
2026-05-05 18:45 59.41504 24.80756 142 ft 10 kts 90°
2026-05-05 18:45 59.41504 24.80908 142 ft 11 kts 89°
2026-05-05 18:46 59.41505 24.81072 142 ft 12 kts 90°
2026-05-05 18:46 59.41505 24.81249 142 ft 13 kts 90°
2026-05-05 18:46 59.41504 24.81437 142 ft 14 kts 91°
2026-05-05 18:46 59.41502 24.81631 142 ft 14 kts 89°
2026-05-05 18:47 59.41503 24.81833 142 ft 14 kts 90°
2026-05-05 18:47 59.41502 24.82039 142 ft 15 kts 91°
2026-05-05 18:47 59.41502 24.82246 142 ft 15 kts 89°
2026-05-05 18:47 59.41502 24.82457 142 ft 15 kts 90°
2026-05-05 18:48 59.41501 24.82672 142 ft 15 kts 89°
2026-05-05 18:48 59.41501 24.82890 142 ft 15 kts 90°
2026-05-05 18:48 59.41501 24.83104 142 ft 15 kts 90°
2026-05-05 18:48 59.41501 24.83320 142 ft 15 kts 90°
2026-05-05 18:49 59.41500 24.83538 142 ft 15 kts 90°
2026-05-05 18:49 59.41500 24.83754 142 ft 15 kts 89°
2026-05-05 18:49 59.41500 24.83970 142 ft 15 kts 90°
2026-05-05 18:49 59.41499 24.84191 142 ft 15 kts 91°
2026-05-05 18:50 59.41498 24.84407 142 ft 15 kts 91°
2026-05-05 18:50 59.41499 24.84624 142 ft 16 kts 90°
2026-05-05 18:50 59.41498 24.84841 142 ft 14 kts 91°
2026-05-05 18:50 59.41488 24.84970 142 ft 9 kts 127°
2026-05-05 18:51 59.41441 24.85011 142 ft 4 kts 177°
2026-05-05 18:51 59.41422 24.85012 142 ft 0 kts 179°
2026-05-05 18:52 59.41412 24.85012 142 ft 3 kts 180°
2026-05-05 18:52 59.41378 24.85011 142 ft 6 kts 182°
2026-05-05 18:53 59.41347 24.85008 142 ft 3 kts 187°
2026-05-05 18:53 59.41325 24.84967 142 ft 5 kts 257°
2026-05-05 18:53 59.41325 24.84952 142 ft 0 kts 267°
2026-05-05 18:53 59.41324 24.84922 142 ft 14 kts 267°
2026-05-05 18:54 59.41325 24.84082 142 ft 105 kts 270°
2026-05-05 18:54 59.41351 24.82382 491 ft 133 kts 274°
2026-05-05 18:54 59.41449 24.80620 1335 ft 132 kts 280°
2026-05-05 18:54 59.41423 24.78877 2145 ft 136 kts 252°
2026-05-05 18:55 59.40699 24.77608 2764 ft 155 kts 210°
2026-05-05 18:55 59.39562 24.77542 3332 ft 175 kts 174°
2026-05-05 18:55 59.38287 24.78045 3695 ft 201 kts 172°
2026-05-05 18:55 59.36871 24.78598 3883 ft 215 kts 172°
2026-05-05 18:56 59.35380 24.79169 3952 ft 220 kts 173°
2026-05-05 18:56 59.33868 24.79735 4004 ft 220 kts 173°
2026-05-05 18:56 59.32344 24.80280 4141 ft 224 kts 174°
2026-05-05 18:56 59.30808 24.80814 4467 ft 222 kts 174°
2026-05-05 18:57 59.29289 24.81333 4766 ft 226 kts 174°
2026-05-05 18:57 59.27752 24.81842 5480 ft 226 kts 175°
2026-05-05 18:57 59.26218 24.82348 6265 ft 224 kts 175°
2026-05-05 18:57 59.24687 24.82850 7002 ft 225 kts 176°
2026-05-05 18:58 59.23159 24.83349 7835 ft 222 kts 177°
2026-05-05 18:58 59.21654 24.83838 8597 ft 223 kts 178°
2026-05-05 18:58 59.20141 24.84329 9399 ft 222 kts 180°
2026-05-05 18:58 59.18641 24.84817 10211 ft 222 kts 181°
2026-05-05 18:59 59.17119 24.85232 10924 ft 221 kts 187°
2026-05-05 18:59 59.15620 24.84996 11625 ft 216 kts 198°
2026-05-05 18:59 59.14116 24.84556 11893 ft 227 kts 198°
2026-05-05 18:59 59.12490 24.84077 11990 ft 244 kts 198°
2026-05-05 19:00 59.10741 24.83572 12010 ft 260 kts 197°
2026-05-05 19:00 59.08938 24.83066 12009 ft 271 kts 197°
2026-05-05 19:00 59.07039 24.82544 12006 ft 279 kts 196°
2026-05-05 19:00 59.05092 24.82014 12000 ft 286 kts 195°
2026-05-05 19:01 59.03117 24.81480 11997 ft 289 kts 195°
2026-05-05 19:01 59.01117 24.80943 11991 ft 291 kts 195°
2026-05-05 19:01 58.99121 24.80412 11955 ft 289 kts 195°
2026-05-05 19:01 58.97125 24.79877 11723 ft 292 kts 195°
2026-05-05 19:02 58.95112 24.79336 11476 ft 295 kts 195°
2026-05-05 19:02 58.93102 24.78798 11226 ft 294 kts 195°
2026-05-05 19:02 58.91092 24.78263 10970 ft 292 kts 195°
2026-05-05 19:02 58.89098 24.77733 10704 ft 288 kts 195°
2026-05-05 19:03 58.87122 24.77210 10441 ft 285 kts 195°
2026-05-05 19:03 58.85181 24.76695 10140 ft 280 kts 195°
2026-05-05 19:03 58.83261 24.76184 9661 ft 278 kts 195°
2026-05-05 19:03 58.81354 24.75680 9166 ft 274 kts 194°
2026-05-05 19:04 58.79489 24.75186 8671 ft 272 kts 194°
2026-05-05 19:04 58.77644 24.74696 8179 ft 267 kts 194°
2026-05-05 19:04 58.75814 24.74215 7713 ft 260 kts 194°
2026-05-05 19:04 58.74054 24.73753 7262 ft 253 kts 194°
2026-05-05 19:05 58.72342 24.73301 6815 ft 248 kts 193°
2026-05-05 19:05 58.70656 24.72854 6366 ft 244 kts 193°
2026-05-05 19:05 58.68987 24.72412 5928 ft 240 kts 193°
2026-05-05 19:05 58.67363 24.71983 5559 ft 233 kts 193°
2026-05-05 19:06 58.65808 24.71578 5387 ft 219 kts 193°
2026-05-05 19:06 58.64354 24.71201 5197 ft 207 kts 193°
2026-05-05 19:06 58.62940 24.70828 4804 ft 206 kts 193°
2026-05-05 19:06 58.61518 24.70448 4364 ft 207 kts 193°
2026-05-05 19:07 58.60095 24.70062 3928 ft 208 kts 193°
2026-05-05 19:07 58.58658 24.69663 3488 ft 210 kts 193°
2026-05-05 19:07 58.57262 24.69158 3238 ft 196 kts 201°
2026-05-05 19:07 58.56042 24.68189 3012 ft 182 kts 216°
2026-05-05 19:08 58.55055 24.66736 2792 ft 179 kts 227°
2026-05-05 19:08 58.54065 24.65223 2500 ft 182 kts 221°
2026-05-05 19:08 58.53011 24.64071 2519 ft 171 kts 213°
2026-05-05 19:08 58.52065 24.62703 2170 ft 173 kts 232°
2026-05-05 19:09 58.51279 24.61059 2124 ft 163 kts 234°
2026-05-05 19:09 58.50487 24.59479 1819 ft 170 kts 231°
2026-05-05 19:09 58.49659 24.57856 1482 ft 167 kts 231°
2026-05-05 19:09 58.48810 24.56538 1236 ft 148 kts 216°
2026-05-05 19:10 58.47996 24.55549 1074 ft 134 kts 219°
2026-05-05 19:10 58.47224 24.54536 932 ft 132 kts 221°
2026-05-05 19:10 58.46488 24.53532 816 ft 128 kts 221°
2026-05-05 19:10 58.45779 24.52523 645 ft 126 kts 222°
2026-05-05 19:11 58.45066 24.51544 546 ft 128 kts 220°
2026-05-05 19:11 58.44339 24.50559 442 ft 129 kts 219°
2026-05-05 19:11 58.43593 24.49551 260 ft 129 kts 218°
2026-05-05 19:11 58.42878 24.48597 86 ft 124 kts 218°
2026-05-05 19:12 58.42264 24.47753 50 ft 83 kts 214°
2026-05-05 19:12 58.41881 24.47227 50 ft 55 kts 218°
2026-05-05 19:12 58.41697 24.46988 50 ft 15 kts 215°
2026-05-05 19:12 58.41628 24.46915 47 ft 7 kts 207°
2026-05-05 19:13 58.41648 24.46916 48 ft 12 kts 47°
2026-05-05 19:13 58.41734 24.47045 50 ft 17 kts 35°
2026-05-05 19:13 58.41829 24.47170 50 ft 12 kts 35°
2026-05-05 19:13 58.41895 24.47179 50 ft 17 kts 306°
2026-05-05 19:14 58.41948 24.47031 50 ft 15 kts 306°
2026-05-05 19:14 58.41990 24.46918 50 ft 4 kts 306°
2026-05-05 19:14 58.42005 24.46877 50 ft 3 kts 305°
2026-05-05 19:14 58.42023 24.46829 50 ft 6 kts 305°
2026-05-05 19:15 58.42046 24.46766 52 ft 4 kts 306°
2026-05-05 19:15 58.42066 24.46712 54 ft 4 kts 305°
2026-05-05 19:15 58.42073 24.46691 54 ft 1 kts 306°
2026-05-05 19:15 58.42080 24.46674 55 ft 1 kts 305°
2026-05-05 19:16 58.42081 24.46670 55 ft 0 kts 305°